Time,TemperatureF,DewpointF,PressureIn,WindDirection,WindDirectionDegrees,WindSpeedMPH,WindSpeedGustMPH,Humidity,HourlyPrecipIn,Conditions,Clouds,dailyrainin,SoftwareType,DateUTC
2013-07-10 00:01:00,75.0,72.0,-100.00,SW,215,4.0,7.0,91,-99.99,,,-99.99,,2013-07-10 04:01:00,
2013-07-10 00:43:00,74.0,72.0,-100.00,SSW,205,4.0,7.0,94,-99.99,,,-99.99,,2013-07-10 04:43:00,
2013-07-10 01:02:00,74.0,73.0,-100.00,SW,215,4.0,7.0,94,-99.99,,,-99.99,,2013-07-10 05:02:00,
2013-07-10 01:22:00,74.0,72.0,-100.00,SW,220,4.0,7.0,94,-99.99,,,-99.99,,2013-07-10 05:22:00,
2013-07-10 01:52:00,73.0,72.0,-100.00,SW,215,4.0,7.0,96,-99.99,,,-99.99,,2013-07-10 05:52:00,
2013-07-10 02:01:00,73.0,72.0,-100.00,SW,225,4.0,7.0,96,-99.99,,,-99.99,,2013-07-10 06:01:00,
2013-07-10 02:22:00,73.0,72.0,-100.00,SW,220,4.0,7.0,96,-99.99,,,-99.99,,2013-07-10 06:22:00,
2013-07-10 02:32:00,73.0,72.0,-100.00,SW,230,7.0,10.0,96,-99.99,,,-99.99,,2013-07-10 06:32:00,
2013-07-10 02:42:00,73.0,72.0,-100.00,SW,235,7.0,12.0,96,-99.99,,,-99.99,,2013-07-10 06:42:00,
2013-07-10 02:52:00,72.0,71.0,-100.00,WSW,245,6.0,11.0,96,-99.99,,,-99.99,,2013-07-10 06:52:00,
2013-07-10 03:01:00,71.0,70.0,-100.00,SW,220,6.0,9.0,96,-99.99,,,-99.99,,2013-07-10 07:01:00,
2013-07-10 03:12:00,71.0,69.0,-100.00,SSW,210,6.0,9.0,96,-99.99,,,-99.99,,2013-07-10 07:12:00,
2013-07-10 03:22:00,70.0,69.0,-100.00,SW,215,6.0,9.0,96,-99.99,,,-99.99,,2013-07-10 07:22:00,
2013-07-10 03:33:00,70.0,69.0,-100.00,SSW,205,4.0,7.0,96,-99.99,,,-99.99,,2013-07-10 07:33:00,
2013-07-10 03:43:00,71.0,70.0,-100.00,SSW,205,4.0,7.0,96,-99.99,,,-99.99,,2013-07-10 07:43:00,
2013-07-10 03:53:00,72.0,71.0,-100.00,SW,220,6.0,8.0,97,-99.99,,,-99.99,,2013-07-10 07:53:00,
2013-07-10 04:01:00,72.0,71.0,-100.00,SSW,210,4.0,9.0,97,-99.99,,,-99.99,,2013-07-10 08:01:00,
2013-07-10 04:11:00,72.0,71.0,-100.00,SW,215,4.0,7.0,97,-99.99,,,-99.99,,2013-07-10 08:11:00,
2013-07-10 04:33:00,72.0,71.0,-100.00,SW,215,4.0,7.0,98,-99.99,,,-99.99,,2013-07-10 08:33:00,
2013-07-10 04:42:00,72.0,71.0,-100.00,SW,220,4.0,7.0,98,-99.99,,,-99.99,,2013-07-10 08:42:00,
2013-07-10 04:53:00,71.0,71.0,-100.00,SW,220,4.0,6.0,98,-99.99,,,-99.99,,2013-07-10 08:53:00,
2013-07-10 05:02:00,71.0,71.0,-100.00,SW,220,4.0,6.0,98,-99.99,,,-99.99,,2013-07-10 09:02:00,
2013-07-10 05:22:00,71.0,71.0,-100.00,SSW,210,4.0,7.0,98,-99.99,,,-99.99,,2013-07-10 09:22:00,
2013-07-10 05:32:00,71.0,71.0,-100.00,SSW,210,4.0,7.0,98,-99.99,,,-99.99,,2013-07-10 09:32:00,
2013-07-10 05:42:00,71.0,70.0,-100.00,SW,215,4.0,7.0,98,-99.99,,,-99.99,,2013-07-10 09:42:00,
2013-07-10 06:01:00,71.0,71.0,-100.00,SW,220,4.0,6.0,99,-99.99,,,-99.99,,2013-07-10 10:01:00,
2013-07-10 06:50:00,-999.0,-99.9,-100.00,SW,220,3.0,6.0,-999,-99.99,,,-99.99,,2013-07-10 10:50:00,
2013-07-10 07:00:00,-999.0,-99.9,-100.00,SW,220,4.0,6.0,-999,-99.99,,,-99.99,,2013-07-10 11:00:00,
2013-07-10 07:43:00,71.0,71.0,-100.00,SW,215,3.0,6.0,99,-99.99,,,-99.99,,2013-07-10 11:43:00,
2013-07-10 08:02:00,71.0,71.0,-100.00,SW,225,4.0,7.0,99,-99.99,,,-99.99,,2013-07-10 12:02:00,
2013-07-10 08:11:00,72.0,71.0,-100.00,SW,220,4.0,9.0,99,-99.99,,,-99.99,,2013-07-10 12:11:00,
2013-07-10 09:43:00,76.0,73.0,-100.00,WSW,240,10.0,14.0,90,-99.99,,,-99.99,,2013-07-10 13:43:00,
2013-07-10 10:01:00,78.0,73.0,-100.00,SW,230,7.0,15.0,86,-99.99,,,-99.99,,2013-07-10 14:01:00,
2013-07-10 10:22:00,78.0,73.0,-100.00,SW,230,9.0,15.0,85,-99.99,,,-99.99,,2013-07-10 14:22:00,
2013-07-10 10:33:00,79.0,74.0,-100.00,SW,235,7.0,13.0,84,-99.99,,,-99.99,,2013-07-10 14:33:00,
2013-07-10 10:43:00,80.0,74.0,-100.00,WSW,245,8.0,14.0,83,-99.99,,,-99.99,,2013-07-10 14:43:00,
2013-07-10 11:22:00,81.0,75.0,-100.00,SW,225,7.0,13.0,81,-99.99,,,-99.99,,2013-07-10 15:22:00,
2013-07-10 11:34:00,82.0,75.0,-100.00,SW,220,8.0,14.0,80,-99.99,,,-99.99,,2013-07-10 15:34:00,
2013-07-10 12:11:00,83.0,75.0,-100.00,SW,235,8.0,16.0,76,-99.99,,,-99.99,,2013-07-10 16:11:00,
2013-07-10 12:33:00,84.0,75.0,-100.00,WSW,250,7.0,14.0,75,-99.99,,,-99.99,,2013-07-10 16:33:00,
2013-07-10 12:44:00,83.0,75.0,-100.00,WSW,255,6.0,11.0,77,-99.99,,,-99.99,,2013-07-10 16:44:00,
2013-07-10 13:02:00,83.0,75.0,-100.00,WSW,245,8.0,13.0,77,-99.99,,,-99.99,,2013-07-10 17:02:00,
2013-07-10 13:32:00,81.0,74.0,-100.00,WSW,250,8.0,17.0,81,-99.99,,,-99.99,,2013-07-10 17:32:00,
2013-07-10 14:02:00,80.0,75.0,-100.00,WSW,240,10.0,16.0,86,-99.99,,,-99.99,,2013-07-10 18:02:00,
2013-07-10 14:22:00,78.0,75.0,-100.00,WNW,285,9.0,18.0,89,-99.99,,,-99.99,,2013-07-10 18:22:00,
2013-07-10 14:32:00,78.0,74.0,-100.00,WNW,285,12.0,20.0,89,-99.99,,,-99.99,,2013-07-10 18:32:00,
2013-07-10 15:32:00,73.0,65.0,-100.00,NW,315,12.0,26.0,75,-99.99,,,-99.99,,2013-07-10 19:32:00,
2013-07-10 15:42:00,74.0,65.0,-100.00,NNW,340,4.0,22.0,74,-99.99,,,-99.99,,2013-07-10 19:42:00,
2013-07-10 17:01:00,76.0,67.0,-100.00,NE,35,6.0,16.0,74,-99.99,,,-99.99,,2013-07-10 21:01:00,
2013-07-10 17:32:00,75.0,65.0,-100.00,NNE,25,3.0,7.0,72,-99.99,,,-99.99,,2013-07-10 21:32:00,
2013-07-10 17:42:00,75.0,66.0,-100.00,NNE,20,2.0,8.0,72,-99.99,,,-99.99,,2013-07-10 21:42:00,
2013-07-10 18:01:00,76.0,65.0,-100.00,NNE,15,1.0,5.0,69,-99.99,,,-99.99,,2013-07-10 22:01:00,
2013-07-10 18:33:00,77.0,66.0,-100.00,NNE,25,1.0,4.0,69,-99.99,,,-99.99,,2013-07-10 22:33:00,
2013-07-10 18:43:00,80.0,65.0,-100.00,North,10,1.0,4.0,61,-99.99,,,-99.99,,2013-07-10 22:43:00,
2013-07-10 18:53:00,78.0,62.0,-100.00,West,275,1.0,6.0,59,-99.99,,,-99.99,,2013-07-10 22:53:00,
2013-07-10 19:01:00,79.0,64.0,-100.00,SSW,205,1.0,4.0,61,-99.99,,,-99.99,,2013-07-10 23:01:00,
2013-07-10 19:11:00,78.0,64.0,-100.00,WSW,240,2.0,6.0,63,-99.99,,,-99.99,,2013-07-10 23:11:00,
2013-07-10 19:32:00,78.0,63.0,-100.00,West,275,2.0,4.0,61,-99.99,,,-99.99,,2013-07-10 23:32:00,
2013-07-10 19:43:00,78.0,63.0,-100.00,West,275,2.0,4.0,61,-99.99,,,-99.99,,2013-07-10 23:43:00,
2013-07-10 19:52:00,78.0,63.0,-100.00,WSW,245,3.0,4.0,61,-99.99,,,-99.99,,2013-07-10 23:52:00,
2013-07-10 20:01:00,78.0,63.0,-100.00,WSW,240,3.0,4.0,61,-99.99,,,-99.99,,2013-07-11 00:01:00,
2013-07-10 20:11:00,78.0,64.0,-100.00,SW,230,2.0,4.0,62,-99.99,,,-99.99,,2013-07-11 00:11:00,
2013-07-10 20:22:00,77.0,63.0,-100.00,SSW,205,3.0,4.0,63,-99.99,,,-99.99,,2013-07-11 00:22:00,
2013-07-10 20:32:00,77.0,64.0,-100.00,SW,230,2.0,4.0,65,-99.99,,,-99.99,,2013-07-11 00:32:00,
2013-07-10 20:42:00,77.0,65.0,-100.00,SSW,205,1.0,3.0,67,-99.99,,,-99.99,,2013-07-11 00:42:00,
2013-07-10 21:01:00,74.0,66.0,-100.00,West,280,2.0,4.0,75,-99.99,,,-99.99,,2013-07-11 01:01:00,
2013-07-10 21:11:00,72.0,65.0,-100.00,SW,230,1.0,4.0,79,-99.99,,,-99.99,,2013-07-11 01:11:00,
2013-07-10 21:43:00,71.0,66.0,-100.00,West,260,1.0,3.0,86,-99.99,,,-99.99,,2013-07-11 01:43:00,
2013-07-10 21:52:00,70.0,67.0,-100.00,South,180,1.0,1.0,89,-99.99,,,-99.99,,2013-07-11 01:52:00,
2013-07-10 22:02:00,70.0,67.0,-100.00,West,280,2.0,3.0,90,-99.99,,,-99.99,,2013-07-11 02:02:00,
2013-07-10 22:22:00,70.0,67.0,-100.00,WNW,285,2.0,3.0,91,-99.99,,,-99.99,,2013-07-11 02:22:00,
2013-07-10 22:32:00,70.0,67.0,-100.00,WSW,240,2.0,4.0,91,-99.99,,,-99.99,,2013-07-11 02:32:00,
2013-07-10 22:43:00,70.0,67.0,-100.00,SW,235,1.0,2.0,92,-99.99,,,-99.99,,2013-07-11 02:43:00,
2013-07-10 23:11:00,69.0,67.0,-100.00,SSW,210,0.0,0.0,94,-99.99,,,-99.99,,2013-07-11 03:11:00,
2013-07-10 23:22:00,69.0,68.0,-100.00,SSW,200,2.0,4.0,95,-99.99,,,-99.99,,2013-07-11 03:22:00,
2013-07-10 23:33:00,69.0,68.0,-100.00,SW,235,1.0,3.0,95,-99.99,,,-99.99,,2013-07-11 03:33:00,
2013-07-10 23:42:00,69.0,67.0,-100.00,West,270,1.0,1.0,96,-99.99,,,-99.99,,2013-07-11 03:42:00,